FENGYUN 1C DEB

Satellite information

Favourite Embed

Satellite Type and Status

DEBRISIN ORBIT

Key statistics

Satellite FENGYUN 1C DEB at a glance.

Uptime

9661

Days in orbit

Revolutions

≈ 13.9

Per day

Orbit

SSO

Sun Synchronous Orbit

Inclination

99.5

Latest

Satellite identification and parameters

Extended collection of information and parameters for FENGYUN 1C DEB.

Object identification

Identified? True

Debris? True

Object name: FENGYUN 1C DEB

International designator: 1999-025TD

Object number (NORAD): 30148

Object ID (CCSDS): 30148

Country: PEOPLES REPUBLIC OF CHINA (PRC)

Current information (Y/N): Y

RCS size: SMALL

Orbital parameters

Period: 103.722 minutes

Inclination: 99.5434 deg

SMA: 7312.616 km

Apoapsis: 1032.462 km

Periapsis: 836.501 km

RAAN: 81.7243 deg

Eccentricy: 0.01339879

Argument of periapsis: 338.3347 deg

Mean anomaly: 36.0884 deg

Mean motion: 13.8833274 rev/day

Mean motion (dot): 0.00001132 rev/day2

B* drag term: 0.00091654301 1/REarth

Two-line elements (TLE)

Creation date: Oct. 20, 2025, 6:08 p.m.

Reference frame: TEME

Reference center: EARTH

Epoch: Oct. 20, 2025, 3:42 p.m. UTC

TLE line 0: 0 FENGYUN 1C DEB

TLE line 1: 1 30148U 99025TD 25293.65416757 .00001132 00000-0 91654-3 0 9998

TLE line 2: 2 30148 99.5434 81.7243 0133988 338.3347 36.0884 13.88332740947806

Live tracking on map

Real-time ground track for satellite FENGYUN 1C DEB.

In-orbit conjunctions

A list of the most updated potential collisions computed for object FENGYUN 1C DEB.

Target Orbit TCA Probability of collision Miss distance Type
CZ-6A DEB LEO 2025-01-26 22:18:31 0.0001220761 395.0 (m) DEBRIS
COSMOS 2251 DEB LEO 2024-11-08 19:54:32 0.00119546 255.0 (m) DEBRIS
INFORMATOR 1 LEO 2024-11-03 19:42:27 0.0001857417 376.0 (m) PAYLOAD

Associated space launch

Chinese polar orbiting meteorological satellite

FENGYUN 1C DEB was lifted into orbit during the mission ‘Long March 4B | Feng Yun 1C’, on board a Long March 4B space rocket.

The launch took place on May 10, 1999, 1:33 a.m. from Launch Complex 7.

For more information about the launch, click the button.

Launch to space Long March 4B | Feng Yun 1C
Long March 4B | Feng Yun 1C

Agency: N/A

Status: Launch Successful

Launch date: May 10, 1999, 1:33 a.m. UTC

Rocket: Long March 4B

Launch pad: Launch Complex 7

Location: Taiyuan Satellite Launch Center, People's Republic of China

...

Latest news about this satellite

There are no fresh news available about this satellite. Check back as we update our databases every day.


Newsletter sign-up

Weekly statistics, charts and insights to help you stay on top of the space industry.